When you browse on this site, cookies collect data to enhance your experience and personalize the content and advertising you see.
Visit our Privacy Policy to learn more. By continuing to use the site, you agree to this use of cookies and data.
  • In Germany
  • List of Countries
  • For 7 days
  • Water Temperature
  • Weather Map
  • Weather Widgets
  • user-avatar
    Login

    Hourly Weather Rangpur

    Today, 19 September, Thursday

    Time Temperature Precipitation Wind Pressure Humidity
    00:00 +28°C° 0 mm 0 mps 755 mmHg 75%
    01:00 +29°C° 0.4 mm 1 mps 754 mmHg 77%
    02:00 +29°C° 0.4 mm 1 mps 754 mmHg 79%
    03:00 +28°C° 0.4 mm 1 mps 753 mmHg 81%
    04:00 +28°C° 0.3 mm 1 mps 754 mmHg 83%
    05:00 +28°C° 0.3 mm 1 mps 754 mmHg 84%
    06:00 +28°C° 0.3 mm 1 mps 754 mmHg 86%
    07:00 +29°C° 0 mm 2 mps 754 mmHg 81%
    08:00 +30°C° 0 mm 2 mps 755 mmHg 76%
    09:00 +32°C° 0 mm 2 mps 755 mmHg 71%
    10:00 +34°C° 0 mm 2 mps 755 mmHg 67%
    11:00 +35°C° 0 mm 2 mps 754 mmHg 62%
    12:00 +35°C° 0 mm 1 mps 754 mmHg 57%
    13:00 +35°C° 0 mm 1 mps 753 mmHg 55%
    14:00 +35°C° 0 mm 1 mps 752 mmHg 54%
    15:00 +36°C° 0 mm 1 mps 751 mmHg 52%
    16:00 +35°C° 0 mm 1 mps 751 mmHg 56%
    17:00 +34°C° 0 mm 1 mps 751 mmHg 60%
    18:00 +31°C° 0 mm 0 mps 751 mmHg 65%
    19:00 +30°C° 0 mm 0 mps 751 mmHg 65%
    20:00 +30°C° 0 mm 0 mps 752 mmHg 66%
    21:00 +31°C° 0 mm 1 mps 752 mmHg 66%
    22:00 +31°C° 0 mm 1 mps 753 mmHg 67%
    23:00 +31°C° 0 mm 1 mps 753 mmHg 68%

    Tomorrow, 20 September, Friday

    Time Temperature Precipitation Wind Pressure Humidity
    00:00 +31°C° 0 mm 1 mps 753 mmHg 69%
    01:00 +30°C° 0 mm 1 mps 752 mmHg 71%
    02:00 +30°C° 0 mm 1 mps 752 mmHg 73%
    03:00 +29°C° 0 mm 1 mps 752 mmHg 75%
    04:00 +29°C° 0 mm 1 mps 752 mmHg 77%
    05:00 +29°C° 0 mm 1 mps 752 mmHg 78%
    06:00 +29°C° 0 mm 1 mps 752 mmHg 79%
    07:00 +28°C° 0 mm 0 mps 753 mmHg 75%
    08:00 +29°C° 0 mm 0 mps 753 mmHg 71%
    09:00 +31°C° 0 mm 0 mps 753 mmHg 67%
    10:00 +34°C° 0.3 mm 1 mps 753 mmHg 63%
    11:00 +35°C° 0.3 mm 1 mps 753 mmHg 59%
    12:00 +36°C° 0.3 mm 1 mps 753 mmHg 54%
    13:00 +36°C° 0.1 mm 1 mps 752 mmHg 55%
    14:00 +36°C° 0.1 mm 1 mps 751 mmHg 55%
    15:00 +37°C° 0.1 mm 2 mps 750 mmHg 55%
    16:00 +35°C° 0.1 mm 1 mps 750 mmHg 59%
    17:00 +34°C° 0.1 mm 1 mps 750 mmHg 62%
    18:00 +33°C° 0.1 mm 1 mps 750 mmHg 66%
    19:00 +32°C° 0 mm 1 mps 751 mmHg 67%
    20:00 +32°C° 0 mm 1 mps 751 mmHg 68%
    21:00 +31°C° 0 mm 1 mps 752 mmHg 69%
    22:00 +31°C° 0 mm 1 mps 752 mmHg 71%
    23:00 +29°C° 0 mm 0 mps 752 mmHg 72%

    Day after tomorrow, 21 September, Saturday

    Time Temperature Precipitation Wind Pressure Humidity
    00:00 +29°C° 0 mm 0 mps 752 mmHg 73%
    01:00 +28°C° 0 mm 0 mps 752 mmHg 75%
    02:00 +28°C° 0 mm 0 mps 752 mmHg 76%
    03:00 +27°C° 0 mm 0 mps 751 mmHg 77%
    04:00 +27°C° 0 mm 0 mps 751 mmHg 78%
    05:00 +27°C° 0 mm 0 mps 752 mmHg 79%
    06:00 +27°C° 0 mm 0 mps 752 mmHg 80%
    07:00 +30°C° 0 mm 1 mps 752 mmHg 75%
    08:00 +32°C° 0 mm 1 mps 752 mmHg 71%
    09:00 +33°C° 0 mm 1 mps 753 mmHg 66%
    10:00 +34°C° 0.1 mm 1 mps 753 mmHg 62%
    11:00 +35°C° 0.1 mm 1 mps 752 mmHg 59%
    12:00 +36°C° 0.1 mm 1 mps 752 mmHg 55%
    13:00 +37°C° 0.1 mm 2 mps 751 mmHg 56%
    14:00 +37°C° 0.1 mm 2 mps 751 mmHg 57%
    15:00 +37°C° 0.1 mm 2 mps 750 mmHg 57%
    16:00 +35°C° 0.2 mm 1 mps 750 mmHg 62%
    17:00 +33°C° 0.2 mm 1 mps 750 mmHg 66%
    18:00 +30°C° 0.2 mm 0 mps 750 mmHg 70%
    19:00 +32°C° 0.1 mm 1 mps 751 mmHg 72%
    20:00 +31°C° 0.1 mm 1 mps 751 mmHg 74%
    21:00 +31°C° 0.1 mm 1 mps 752 mmHg 76%
    22:00 +30°C° 0 mm 1 mps 752 mmHg 76%
    23:00 +30°C° 0 mm 1 mps 752 mmHg 77%

    22 September, Sunday

    Time Temperature Precipitation Wind Pressure Humidity
    00:00 +30°C° 0 mm 1 mps 752 mmHg 78%
    01:00 +30°C° 0 mm 1 mps 752 mmHg 79%
    02:00 +29°C° 0 mm 1 mps 752 mmHg 80%
    03:00 +29°C° 0 mm 1 mps 752 mmHg 82%
    04:00 +29°C° 0.2 mm 1 mps 752 mmHg 83%
    05:00 +29°C° 0.2 mm 1 mps 752 mmHg 84%
    06:00 +29°C° 0.2 mm 1 mps 753 mmHg 85%
    07:00 +30°C° 0.6 mm 1 mps 753 mmHg 81%
    08:00 +31°C° 0.6 mm 2 mps 754 mmHg 77%
    09:00 +32°C° 0.6 mm 2 mps 754 mmHg 72%
    10:00 +34°C° 1.3 mm 1 mps 754 mmHg 67%
    11:00 +35°C° 1.3 mm 1 mps 754 mmHg 61%
    12:00 +34°C° 1.3 mm 0 mps 753 mmHg 55%
    13:00 +34°C° 0 mm 0 mps 753 mmHg 54%
    14:00 +34°C° 0 mm 0 mps 752 mmHg 54%
    15:00 +34°C° 0 mm 0 mps 752 mmHg 53%
    16:00 +35°C° 0.4 mm 1 mps 752 mmHg 59%
    17:00 +33°C° 0.4 mm 1 mps 752 mmHg 64%
    18:00 +32°C° 0.4 mm 2 mps 752 mmHg 70%
    19:00 +31°C° 0.7 mm 2 mps 752 mmHg 73%
    20:00 +31°C° 0.7 mm 2 mps 753 mmHg 76%
    21:00 +30°C° 0.7 mm 2 mps 754 mmHg 80%
    22:00 +30°C° 1.1 mm 2 mps 754 mmHg 82%
    23:00 +29°C° 1.1 mm 2 mps 754 mmHg 84%

    23 September, Monday

    Time Temperature Precipitation Wind Pressure Humidity
    00:00 +29°C° 1.1 mm 2 mps 754 mmHg 86%
    01:00 +29°C° 2.2 mm 2 mps 754 mmHg 87%
    02:00 +28°C° 2.2 mm 2 mps 754 mmHg 88%
    03:00 +28°C° 2.2 mm 2 mps 753 mmHg 89%
    04:00 +28°C° 3 mm 2 mps 754 mmHg 89%
    05:00 +28°C° 3 mm 2 mps 754 mmHg 90%
    06:00 +28°C° 3 mm 2 mps 754 mmHg 90%
    07:00 +28°C° 2.4 mm 2 mps 755 mmHg 89%
    08:00 +28°C° 2.4 mm 2 mps 755 mmHg 88%
    09:00 +29°C° 2.4 mm 2 mps 756 mmHg 86%
    10:00 +29°C° 0.2 mm 3 mps 755 mmHg 85%
    11:00 +29°C° 0.2 mm 3 mps 755 mmHg 83%
    12:00 +30°C° 0.2 mm 4 mps 755 mmHg 82%
    13:00 +30°C° 0.1 mm 4 mps 754 mmHg 80%
    14:00 +30°C° 0.1 mm 3 mps 754 mmHg 79%
    15:00 +31°C° 0.1 mm 3 mps 753 mmHg 77%
    16:00 +30°C° 0.2 mm 3 mps 753 mmHg 81%
    17:00 +29°C° 0.2 mm 3 mps 753 mmHg 84%
    18:00 +29°C° 0.2 mm 2 mps 753 mmHg 87%
    19:00 +28°C° 0.4 mm 3 mps 754 mmHg 87%
    20:00 +28°C° 0.4 mm 3 mps 754 mmHg 87%
    21:00 +28°C° 0.4 mm 3 mps 755 mmHg 87%
    22:00 +28°C° 2.3 mm 3 mps 755 mmHg 88%
    23:00 +28°C° 2.3 mm 3 mps 755 mmHg 89%

    24 September, Tuesday

    Time Temperature Precipitation Wind Pressure Humidity
    00:00 +27°C° 2.3 mm 3 mps 755 mmHg 90%
    01:00 +27°C° 2.2 mm 3 mps 755 mmHg 90%
    02:00 +27°C° 2.2 mm 3 mps 755 mmHg 90%
    03:00 +27°C° 2.2 mm 3 mps 754 mmHg 90%
    04:00 +27°C° 2.1 mm 3 mps 754 mmHg 90%
    05:00 +27°C° 2.1 mm 2 mps 755 mmHg 90%
    06:00 +27°C° 2.1 mm 2 mps 755 mmHg 90%
    07:00 +28°C° 1.6 mm 2 mps 755 mmHg 87%
    08:00 +28°C° 1.6 mm 2 mps 756 mmHg 85%
    09:00 +29°C° 1.6 mm 2 mps 756 mmHg 82%
    10:00 +29°C° 1.2 mm 2 mps 756 mmHg 81%
    11:00 +30°C° 1.2 mm 3 mps 755 mmHg 80%
    12:00 +30°C° 1.2 mm 3 mps 755 mmHg 79%
    13:00 +30°C° 0.6 mm 3 mps 755 mmHg 79%
    14:00 +30°C° 0.6 mm 3 mps 754 mmHg 78%
    15:00 +30°C° 0.6 mm 3 mps 754 mmHg 78%
    16:00 +29°C° 1.4 mm 3 mps 754 mmHg 82%
    17:00 +29°C° 1.4 mm 3 mps 754 mmHg 85%
    18:00 +28°C° 1.4 mm 2 mps 754 mmHg 89%
    19:00 +27°C° 0.2 mm 3 mps 755 mmHg 90%
    20:00 +27°C° 0.2 mm 3 mps 756 mmHg 91%
    21:00 +26°C° 0.2 mm 3 mps 756 mmHg 92%
    22:00 +26°C° 0.2 mm 3 mps 756 mmHg 93%
    23:00 +26°C° 0.2 mm 2 mps 756 mmHg 94%
    Show more